JBU2631 TJSJ-TISX

Flight info

Callsign JBU2631
Flight time 0h 20m
Altitude 15000
Route SJU RTE2 COY
Aircraft A320/M-SDE3FGHIRWY/LB1

Departure

Time 2026-04-25 17:54
Airport Luis Munoz Marin International Airport (TJSJ)

Arrival

Time 2026-04-25 18:14
Airport Henry E. Rohlsen Airport (TISX)
Time Latitude Longitude Altitude Speed Heading
2026-04-25 17:16 18.43552 -66.00701 -45 ft 0 kts
2026-04-25 17:46 18.43551 -66.00701 -27 ft 1 kts
2026-04-25 17:46 18.43527 -66.00700 -39 ft 4 kts 355°
2026-04-25 17:46 18.43500 -66.00696 -27 ft 4 kts 345°
2026-04-25 17:47 18.43476 -66.00686 -44 ft 4 kts 315°
2026-04-25 17:47 18.43467 -66.00671 -50 ft 1 kts 270°
2026-04-25 17:47 18.43467 -66.00667 -50 ft 0 kts 270°
2026-04-25 17:50 18.43467 -66.00682 -39 ft 3 kts 270°
2026-04-25 17:50 18.43467 -66.00717 -31 ft 6 kts 270°
2026-04-25 17:50 18.43468 -66.00772 -28 ft 9 kts 270°
2026-04-25 17:50 18.43467 -66.00847 -28 ft 11 kts 270°
2026-04-25 17:51 18.43467 -66.00941 -29 ft 15 kts 270°
2026-04-25 17:51 18.43467 -66.01018 -29 ft 17 kts 270°
2026-04-25 17:51 18.43466 -66.01151 -31 ft 21 kts 269°
2026-04-25 17:51 18.43467 -66.01314 -31 ft 24 kts 270°
2026-04-25 17:52 18.43504 -66.01435 -30 ft 15 kts 359°
2026-04-25 17:52 18.43577 -66.01435 -38 ft 17 kts 359°
2026-04-25 17:52 18.43744 -66.01436 -41 ft 16 kts 353°
2026-04-25 17:52 18.43757 -66.01513 -42 ft 5 kts 283°
2026-04-25 17:53 18.43778 -66.01541 -46 ft 13 kts 314°
2026-04-25 17:53 18.43864 -66.01519 -44 ft 17 kts 64°
2026-04-25 17:53 18.43940 -66.01332 -51 ft 62 kts 66°
2026-04-25 17:53 18.44232 -66.00609 -38 ft 148 kts 67°
2026-04-25 17:54 18.44695 -65.99453 361 ft 183 kts 69°
2026-04-25 17:54 18.45217 -65.98212 1278 ft 191 kts 61°
2026-04-25 17:54 18.46078 -65.97040 1674 ft 215 kts 49°
2026-04-25 17:54 18.47180 -65.95856 2018 ft 238 kts 48°
2026-04-25 17:55 18.48397 -65.94593 2498 ft 257 kts 46°
2026-04-25 17:55 18.49687 -65.93241 3233 ft 272 kts 46°
2026-04-25 17:55 18.51078 -65.91782 4058 ft 286 kts 46°
2026-04-25 17:55 18.52478 -65.90267 5142 ft 293 kts 46°
2026-04-25 17:56 18.53951 -65.88656 5727 ft 317 kts 46°
2026-04-25 17:56 18.55498 -65.86924 6398 ft 328 kts 51°
2026-04-25 17:56 18.56646 -65.84837 7164 ft 332 kts 72°
2026-04-25 17:56 18.57007 -65.82440 7969 ft 333 kts 94°
2026-04-25 17:57 18.56515 -65.80066 8669 ft 334 kts 115°
2026-04-25 17:57 18.55283 -65.78014 8926 ft 334 kts 131°
2026-04-25 17:57 18.53794 -65.76047 9005 ft 350 kts 131°
2026-04-25 17:57 18.52784 -65.74720 9011 ft 352 kts 131°
2026-04-25 17:58 18.50726 -65.72022 9016 ft 353 kts 131°
2026-04-25 17:58 18.49215 -65.70031 9015 ft 353 kts 131°
2026-04-25 17:58 18.47666 -65.67982 9015 ft 353 kts 131°
2026-04-25 17:58 18.46157 -65.65983 9014 ft 353 kts 131°
2026-04-25 17:59 18.44629 -65.63954 9016 ft 354 kts 131°
2026-04-25 17:59 18.43103 -65.61922 9016 ft 354 kts 131°
2026-04-25 17:59 18.41576 -65.59888 9020 ft 354 kts 130°
2026-04-25 17:59 18.40050 -65.57858 9021 ft 353 kts 131°
2026-04-25 18:00 18.38523 -65.55829 9027 ft 353 kts 131°
2026-04-25 18:00 18.36994 -65.53799 9030 ft 354 kts 131°
2026-04-25 18:00 18.35457 -65.51762 9032 ft 354 kts 131°
2026-04-25 18:00 18.33913 -65.49728 9034 ft 354 kts 133°
2026-04-25 18:01 18.32107 -65.48003 9037 ft 350 kts 145°
2026-04-25 18:01 18.30181 -65.46491 9037 ft 350 kts 146°
2026-04-25 18:01 18.28196 -65.44950 9038 ft 350 kts 146°
2026-04-25 18:01 18.26260 -65.43447 9040 ft 350 kts 146°
2026-04-25 18:02 18.24299 -65.41926 9040 ft 351 kts 146°
2026-04-25 18:02 18.22331 -65.40403 9040 ft 351 kts 146°
2026-04-25 18:02 18.20365 -65.38881 8867 ft 348 kts 146°
2026-04-25 18:02 18.18445 -65.37385 8525 ft 338 kts 146°
2026-04-25 18:03 18.16578 -65.35925 8180 ft 330 kts 146°
2026-04-25 18:03 18.14755 -65.34494 7841 ft 324 kts 146°
2026-04-25 18:03 18.12966 -65.33086 7503 ft 318 kts 146°
2026-04-25 18:03 18.11210 -65.31703 7155 ft 313 kts 145°
2026-04-25 18:04 18.09470 -65.30343 6826 ft 310 kts 146°
2026-04-25 18:04 18.07747 -65.29003 6525 ft 305 kts 146°
2026-04-25 18:04 18.06058 -65.27694 6268 ft 298 kts 146°
2026-04-25 18:04 18.04410 -65.26416 5995 ft 292 kts 146°
2026-04-25 18:05 18.02793 -65.25160 5724 ft 286 kts 146°
2026-04-25 18:05 18.01211 -65.23930 5459 ft 281 kts 146°
2026-04-25 18:05 17.99674 -65.22733 5195 ft 276 kts 146°
2026-04-25 18:05 17.98143 -65.21538 4922 ft 272 kts 146°
2026-04-25 18:06 17.96635 -65.20362 4662 ft 268 kts 146°
2026-04-25 18:06 17.95154 -65.19205 4388 ft 263 kts 146°
2026-04-25 18:06 17.93691 -65.18066 4118 ft 261 kts 146°
2026-04-25 18:06 17.92232 -65.16932 3850 ft 260 kts 146°
2026-04-25 18:07 17.90776 -65.15804 3577 ft 259 kts 146°
2026-04-25 18:07 17.89328 -65.14682 3313 ft 257 kts 146°
2026-04-25 18:07 17.87886 -65.13574 3044 ft 256 kts 146°
2026-04-25 18:07 17.86465 -65.12481 2779 ft 256 kts 146°
2026-04-25 18:08 17.85029 -65.11385 2512 ft 255 kts 146°
2026-04-25 18:08 17.83592 -65.10286 2252 ft 255 kts 146°
2026-04-25 18:08 17.82166 -65.09184 2039 ft 254 kts 146°
2026-04-25 18:08 17.80739 -65.08084 1987 ft 254 kts 146°
2026-04-25 18:09 17.79302 -65.07000 1991 ft 254 kts 146°
2026-04-25 18:09 17.77906 -65.05942 1985 ft 241 kts 146°
2026-04-25 18:09 17.76582 -65.04913 1992 ft 235 kts 145°
2026-04-25 18:09 17.75708 -65.04240 1991 ft 236 kts 145°
2026-04-25 18:10 17.73945 -65.02883 1992 ft 235 kts 139°
2026-04-25 18:10 17.73023 -65.01469 2001 ft 237 kts 118°
2026-04-25 18:10 17.72324 -64.99900 1999 ft 237 kts 116°
2026-04-25 18:10 17.71641 -64.98323 1999 ft 239 kts 116°
2026-04-25 18:11 17.70958 -64.96727 2005 ft 239 kts 116°
2026-04-25 18:11 17.70295 -64.95129 2008 ft 238 kts 115°
2026-04-25 18:11 17.69635 -64.93547 2009 ft 235 kts 116°
2026-04-25 18:11 17.69083 -64.91987 1923 ft 225 kts 101°
2026-04-25 18:12 17.69103 -64.90388 1709 ft 222 kts 86°
2026-04-25 18:12 17.69275 -64.88801 1439 ft 214 kts 86°
2026-04-25 18:12 17.69436 -64.87280 1185 ft 204 kts 86°
2026-04-25 18:12 17.69583 -64.85849 932 ft 191 kts 87°
2026-04-25 18:13 17.69720 -64.84497 662 ft 178 kts 88°
2026-04-25 18:13 17.69847 -64.83268 429 ft 161 kts 87°
2026-04-25 18:13 17.69964 -64.82112 225 ft 166 kts 87°
2026-04-25 18:14 17.70161 -64.80103 42 ft 97 kts 82°
2026-04-25 18:14 17.70220 -64.79546 36 ft 42 kts 85°
2026-04-25 18:14 17.70188 -64.79343 32 ft 21 kts 159°
2026-04-25 18:14 17.70147 -64.79334 32 ft 0 kts 174°
2026-04-25 18:15 17.70146 -64.79334 32 ft 0 kts 174°
2026-04-25 18:16 17.70128 -64.79334 32 ft 5 kts 185°
2026-04-25 18:16 17.70093 -64.79441 33 ft 10 kts 263°
2026-04-25 18:17 17.70051 -64.79462 33 ft 9 kts 172°
2026-04-25 18:17 17.69980 -64.79460 32 ft 11 kts 204°
2026-04-25 18:17 17.69992 -64.79521 34 ft 8 kts 353°
2026-04-25 18:17 17.70016 -64.79523 34 ft 0 kts 354°
2026-04-25 18:19 17.70015 -64.79523 34 ft 0 kts 354°
2026-04-25 18:20 17.70016 -64.79523 34 ft 0 kts 354°